Location: Houhaj�rvi
(61.2833°N, 23.0000°E)
Time: 15:42:17
(UTC+00:00)

Cosmos 540 Rocket - Pass Details

Date: 27 February 2020
Orbit: 740 x 754 km, 74.1° (Epoch: 07 April)

Event Time Altitude Azimuth Distance (km) Brightness Sun altitude
Rises 19:31:05 0° 219° (SW) 3,183 6.8 -26.6°
Reaches altitude 10° 19:33:26 10° 221° (SW) 2,265 6.0 -26.9°
Maximum altitude 19:38:34 74° 307° (NW) 784 3.5 -27.4°
Drops below altitude 10° 19:43:45 10° 33° (NNE) 2,287 6.0 -27.9°
Sets 19:46:09 0° 35° (NE) 3,217 6.8 -28.1°
